,,,PA_Meas_PMT16A,,PR_Meas_QMR101_102,,RH_Meas_QMH101,,SR_Meas_QMS101,,TA_Meas_QMH101,,GenWind,,GenWind,
date,time,status,PA,status,PR,status,RH,status,SR,status,TA,status,DirAvg,status,SpdAvg,
2010-08-19, 00:00:04,VALID,999.928,VALID,0,VALID,85.0169,VALID,0,VALID,24.677,VALID,256,VALID,0.895312,
2010-08-19, 00:01:04,VALID,999.954,VALID,0,VALID,84.8032,VALID,0,VALID,24.7142,VALID,249,VALID,0.939844,
2010-08-19, 00:02:04,VALID,999.962,VALID,0,VALID,84.6201,VALID,0,VALID,24.7551,VALID,274,VALID,1.00352,
2010-08-19, 00:03:04,VALID,999.975,VALID,0,VALID,84.2692,VALID,0,VALID,24.7727,VALID,275,VALID,1.08281,
2010-08-19, 00:04:04,VALID,999.95,VALID,0,VALID,83.7122,VALID,0,VALID,24.8136,VALID,285,VALID,0.756641,
2010-08-19, 00:05:04,VALID,999.956,VALID,0,VALID,84.0174,VALID,0,VALID,24.8117,VALID,60,VALID,0.899609,
2010-08-19, 00:06:04,VALID,999.935,VALID,0,VALID,84.2539,VALID,0,VALID,24.6946,VALID,39,VALID,1.08516,
2010-08-19, 00:07:04,VALID,999.938,VALID,0,VALID,85.4899,VALID,0,VALID,24.558,VALID,26,VALID,1.18984,
2010-08-19, 00:08:04,VALID,999.933,VALID,0,VALID,85.7646,VALID,0,VALID,24.4623,VALID,34,VALID,1.45469,
2010-08-19, 00:09:04,VALID,999.946,VALID,0,VALID,86.0087,VALID,0,VALID,24.3842,VALID,20,VALID,1.27617,
2010-08-19, 00:10:04,VALID,999.961,VALID,0,VALID,85.8485,VALID,0,VALID,24.3842,VALID,12,VALID,0.734375,
2010-08-19, 00:11:04,VALID,999.929,VALID,0,VALID,86.1689,VALID,0,VALID,24.4428,VALID,349,VALID,0.692187,
2010-08-19, 00:12:04,VALID,999.937,VALID,0,VALID,85.5204,VALID,0,VALID,24.4428,VALID,11,VALID,0.838672,
2010-08-19, 00:13:04,VALID,999.987,VALID,0,VALID,85.2381,VALID,0,VALID,24.4995,VALID,356,VALID,1.03281,
2010-08-19, 00:14:04,VALID,999.987,VALID,0,VALID,85.1694,VALID,0,VALID,24.5794,VALID,342,VALID,1.02422,
2010-08-19, 00:15:04,VALID,999.977,VALID,0,VALID,85.5357,VALID,0,VALID,24.4995,VALID,327,VALID,0.936328,
2010-08-19, 00:16:04,VALID,999.944,VALID,0,VALID,85.9019,VALID,0,VALID,24.4623,VALID,320,VALID,0.776563,
2010-08-19, 00:17:04,VALID,999.938,VALID,0,VALID,86.0392,VALID,0,VALID,24.4233,VALID,311,VALID,0.992578,
2010-08-19, 00:18:04,VALID,999.938,VALID,0,VALID,86.1918,VALID,0,VALID,24.3824,VALID,307,VALID,0.885938,
2010-08-19, 00:19:04,VALID,999.919,VALID,0,VALID,86.3063,VALID,0,VALID,24.3824,VALID,297,VALID,0.713672,
2010-08-19, 00:20:04,VALID,999.947,VALID,0,VALID,86.5962,VALID,0,VALID,24.3452,VALID,297,VALID,0.541406,
2010-08-19, 00:21:04,VALID,999.936,VALID,0,VALID,86.2147,VALID,0,VALID,24.3257,VALID,314,VALID,0.304297,
2010-08-19, 00:22:04,VALID,999.966,VALID,0,VALID,86.5504,VALID,0,VALID,24.3452,VALID,317,VALID,0.601563,
2010-08-19, 00:23:04,VALID,999.923,VALID,0,VALID,86.6115,VALID,0,VALID,24.3062,VALID,318,VALID,0.329688,
2010-08-19, 00:24:04,VALID,999.946,VALID,0,VALID,86.6725,VALID,0,VALID,24.2866,VALID,318,VALID,0.177734,
2010-08-19, 00:25:04,VALID,999.945,VALID,0,VALID,86.909,VALID,0,VALID,24.2476,VALID,318,VALID,0.256641,
2010-08-19, 00:26:04,VALID,999.919,VALID,0,VALID,87.1455,VALID,0,VALID,24.1872,VALID,318,VALID,0.464844,
2010-08-19, 00:27:04,VALID,999.963,VALID,0,VALID,87.3439,VALID,0,VALID,24.1677,VALID,318,VALID,0.360938,
2010-08-19, 00:28:04,VALID,1000,VALID,0,VALID,87.4354,VALID,0,VALID,24.1696,VALID,318,VALID,0.488281,
2010-08-19, 00:29:04,VALID,1000,VALID,0,VALID,87.5728,VALID,0,VALID,24.1677,VALID,265,VALID,0.578125,
2010-08-19, 00:30:04,VALID,1000.03,VALID,0,VALID,87.527,VALID,0,VALID,24.2086,VALID,230,VALID,0.535156,
2010-08-19, 00:31:04,VALID,1000.03,VALID,0,VALID,87.382,VALID,0,VALID,24.2281,VALID,230,VALID,0.471094,
2010-08-19, 00:32:04,VALID,1000.04,VALID,0,VALID,87.2142,VALID,0,VALID,24.2671,VALID,230,VALID,0.221094,
2010-08-19, 00:33:04,VALID,1000.08,VALID,0,VALID,86.848,VALID,0,VALID,24.2671,VALID,212,VALID,0.157031,
2010-08-19, 00:34:04,VALID,1000.08,VALID,0,VALID,86.7259,VALID,0,VALID,24.2671,VALID,103,VALID,0.924219,
2010-08-19, 00:35:04,VALID,1000.07,VALID,0,VALID,86.0545,VALID,0,VALID,24.2671,VALID,126,VALID,0.841016,
2010-08-19, 00:36:04,VALID,1000.05,VALID,0,VALID,86.0545,VALID,0,VALID,24.3257,VALID,152,VALID,0.350391,
2010-08-19, 00:37:04,VALID,1000.07,VALID,0,VALID,85.8332,VALID,0,VALID,24.3647,VALID,152,VALID,0.280469,
2010-08-19, 00:38:04,VALID,1000.11,VALID,0,VALID,85.7722,VALID,0,VALID,24.4037,VALID,152,VALID,0.326953,
2010-08-19, 00:39:04,VALID,1000.1,VALID,0,VALID,85.5586,VALID,0,VALID,24.4428,VALID,152,VALID,0.337109,
2010-08-19, 00:40:04,VALID,1000.08,VALID,0,VALID,85.261,VALID,0,VALID,24.5013,VALID,152,VALID,0.416797,
2010-08-19, 00:41:04,VALID,1000.07,VALID,0,VALID,85.0474,VALID,0,VALID,24.5209,VALID,152,VALID,0.221875,
2010-08-19, 00:42:04,VALID,1000.07,VALID,0,VALID,85.0016,VALID,0,VALID,24.5794,VALID,152,VALID,0.30625,
2010-08-19, 00:43:04,VALID,1000.02,VALID,0,VALID,84.6659,VALID,0,VALID,24.6398,VALID,152,VALID,0.105078,
2010-08-19, 00:44:04,VALID,1000.02,VALID,0,VALID,84.4752,VALID,0,VALID,24.6575,VALID,152,VALID,0,
2010-08-19, 00:45:04,VALID,999.995,VALID,0,VALID,84.5591,VALID,0,VALID,24.677,VALID,152,VALID,0,
2010-08-19, 00:46:04,VALID,999.99,VALID,0,VALID,84.4828,VALID,0,VALID,24.677,VALID,152,VALID,0,
2010-08-19, 00:47:04,VALID,999.972,VALID,0,VALID,84.3607,VALID,0,VALID,24.677,VALID,152,VALID,0,
2010-08-19, 00:48:04,VALID,999.93,VALID,0,VALID,84.3149,VALID,0,VALID,24.7356,VALID,152,VALID,0.376172,
2010-08-19, 00:49:04,VALID,999.852,VALID,0,VALID,84.2386,VALID,0,VALID,24.7746,VALID,244,VALID,0.776953,
2010-08-19, 00:50:04,VALID,999.79,VALID,0,VALID,84.4294,VALID,0,VALID,24.7746,VALID,258,VALID,1.14844,
2010-08-19, 00:51:04,VALID,999.772,VALID,0,VALID,84.2157,VALID,0,VALID,24.8136,VALID,270,VALID,1.17773,
2010-08-19, 00:52:04,VALID,999.761,VALID,0,VALID,83.9182,VALID,0,VALID,24.8332,VALID,266,VALID,1.03477,
2010-08-19, 00:53:04,VALID,999.762,VALID,0,VALID,83.9563,VALID,0,VALID,24.8332,VALID,246,VALID,0.776563,
2010-08-19, 00:54:04,VALID,999.797,VALID,0,VALID,83.9334,VALID,0,VALID,24.8136,VALID,246,VALID,0.529297,
2010-08-19, 00:55:04,VALID,999.788,VALID,0,VALID,83.9869,VALID,0,VALID,24.8136,VALID,246,VALID,0.308594,
2010-08-19, 00:56:04,VALID,999.775,VALID,0,VALID,84.0937,VALID,0,VALID,24.7941,VALID,246,VALID,0.196094,
2010-08-19, 00:57:04,VALID,999.789,VALID,0,VALID,84.376,VALID,0,VALID,24.716,VALID,32,VALID,1.07109,
2010-08-19, 00:58:04,VALID,999.805,VALID,0,VALID,85.3449,VALID,0,VALID,24.4837,VALID,56,VALID,1.07813,
2010-08-19, 00:59:04,VALID,999.769,VALID,0,VALID,85.7798,VALID,0,VALID,24.2866,VALID,58,VALID,0.794141,
2010-08-19, 01:00:04,VALID,999.796,VALID,0,VALID,86.3597,VALID,0,VALID,24.1677,VALID,58,VALID,1.15625,
2010-08-19, 01:01:04,VALID,999.807,VALID,0,VALID,86.5809,VALID,0,VALID,24.1305,VALID,57,VALID,1.00898,
2010-08-19, 01:02:04,VALID,999.768,VALID,0,VALID,86.848,VALID,0,VALID,24.1092,VALID,37,VALID,0.85625,
2010-08-19, 01:03:04,VALID,999.744,VALID,0,VALID,86.6649,VALID,0,VALID,24.1696,VALID,7,VALID,0.980859,
2010-08-19, 01:04:04,VALID,999.687,VALID,0,VALID,86.2834,VALID,0,VALID,24.2476,VALID,353,VALID,0.950781,
2010-08-19, 01:05:04,VALID,999.699,VALID,0,VALID,86.352,VALID,0,VALID,24.2458,VALID,342,VALID,0.784766,
2010-08-19, 01:06:04,VALID,999.702,VALID,0,VALID,86.4817,VALID,0,VALID,24.2866,VALID,324,VALID,0.653906,
2010-08-19, 01:07:04,VALID,999.655,VALID,0,VALID,86.6649,VALID,0,VALID,24.2458,VALID,294,VALID,0.510156,
2010-08-19, 01:08:04,VALID,999.673,VALID,0,VALID,86.8327,VALID,0,VALID,24.2263,VALID,294,VALID,0.626953,
2010-08-19, 01:09:04,VALID,999.654,VALID,0,VALID,86.9319,VALID,0,VALID,24.2281,VALID,301,VALID,0.814062,
2010-08-19, 01:10:04,VALID,999.656,VALID,0,VALID,87.0082,VALID,0,VALID,24.2086,VALID,303,VALID,0.65625,
2010-08-19, 01:11:04,VALID,999.705,VALID,0,VALID,87.115,VALID,0,VALID,24.1891,VALID,303,VALID,0.657422,
2010-08-19, 01:12:04,VALID,999.696,VALID,0,VALID,87.2829,VALID,0,VALID,24.1696,VALID,303,VALID,0.414453,
2010-08-19, 01:13:04,VALID,999.676,VALID,0,VALID,87.3057,VALID,0,VALID,24.15,VALID,303,VALID,0.174219,
2010-08-19, 01:14:04,VALID,999.66,VALID,0,VALID,86.6649,VALID,0,VALID,24.0329,VALID,48,VALID,1,
2010-08-19, 01:15:04,VALID,999.643,VALID,0,VALID,87.939,VALID,0,VALID,23.8963,VALID,45,VALID,0.598047,
2010-08-19, 01:16:04,VALID,999.628,VALID,0,VALID,88.412,VALID,0,VALID,23.7793,VALID,14,VALID,0.944141,
2010-08-19, 01:17:04,VALID,999.62,VALID,0,VALID,88.7783,VALID,0,VALID,23.7012,VALID,9,VALID,0.993359,
2010-08-19, 01:18:04,VALID,999.602,VALID,0,VALID,88.9537,VALID,0,VALID,23.6817,VALID,3,VALID,0.951563,
2010-08-19, 01:19:04,VALID,999.596,VALID,0,VALID,89.2208,VALID,0,VALID,23.7012,VALID,359,VALID,1.06914,
2010-08-19, 01:20:04,VALID,999.568,VALID,0,VALID,89.2589,VALID,0,VALID,23.7012,VALID,353,VALID,0.821875,
2010-08-19, 01:21:04,VALID,999.578,VALID,0,VALID,89.2284,VALID,0,VALID,23.7189,VALID,353,VALID,0.446484,
2010-08-19, 01:22:04,VALID,999.589,VALID,0,VALID,89.3428,VALID,0,VALID,23.7597,VALID,345,VALID,0.510156,
2010-08-19, 01:23:04,VALID,999.619,VALID,0,VALID,89.3276,VALID,0,VALID,23.7793,VALID,274,VALID,0.729297,
2010-08-19, 01:24:04,VALID,999.604,VALID,0,VALID,89.0071,VALID,0,VALID,23.8963,VALID,249,VALID,0.69375,
2010-08-19, 01:25:04,VALID,999.611,VALID,0,VALID,88.5189,VALID,0,VALID,23.9744,VALID,244,VALID,0.595703,
2010-08-19, 01:26:04,VALID,999.583,VALID,0,VALID,88.145,VALID,0,VALID,24.0525,VALID,244,VALID,0.544531,
2010-08-19, 01:27:04,VALID,999.588,VALID,0,VALID,87.9009,VALID,0,VALID,24.0915,VALID,244,VALID,0.510547,
2010-08-19, 01:28:04,VALID,999.581,VALID,0,VALID,87.7101,VALID,0,VALID,24.1305,VALID,244,VALID,0.458203,
2010-08-19, 01:29:04,VALID,999.565,VALID,0,VALID,87.6186,VALID,0,VALID,24.15,VALID,244,VALID,0.271484,
2010-08-19, 01:30:04,VALID,999.528,VALID,0,VALID,86.8937,VALID,0,VALID,24.072,VALID,43,VALID,1.14961,
2010-08-19, 01:31:04,VALID,999.559,VALID,0,VALID,87.1989,VALID,0,VALID,24.0329,VALID,38,VALID,1.25703,
2010-08-19, 01:32:04,VALID,999.536,VALID,0,VALID,86.97,VALID,0,VALID,23.9744,VALID,35,VALID,1.01133,
2010-08-19, 01:33:04,VALID,999.507,VALID,0,VALID,87.7177,VALID,0,VALID,23.9159,VALID,15,VALID,1.39336,
2010-08-19, 01:34:04,VALID,999.519,VALID,0,VALID,87.8093,VALID,0,VALID,23.8768,VALID,4,VALID,1.27969,
2010-08-19, 01:35:04,VALID,999.523,VALID,0,VALID,88.29,VALID,0,VALID,23.8378,VALID,349,VALID,0.664844,
2010-08-19, 01:36:04,VALID,999.525,VALID,0,VALID,88.3434,VALID,0,VALID,23.8183,VALID,349,VALID,0.278906,
2010-08-19, 01:37:04,VALID,999.563,VALID,0,VALID,88.5799,VALID,0,VALID,23.7988,VALID,350,VALID,0.529297,
2010-08-19, 01:38:04,VALID,999.54,VALID,0,VALID,88.7935,VALID,0,VALID,23.7384,VALID,47,VALID,1.04414,
2010-08-19, 01:39:04,VALID,999.509,VALID,0,VALID,88.8851,VALID,0,VALID,23.7012,VALID,36,VALID,1.32656,
2010-08-19, 01:40:04,VALID,999.481,VALID,0,VALID,89.0682,VALID,0,VALID,23.6427,VALID,39,VALID,1.37734,
2010-08-19, 01:41:04,VALID,999.473,VALID,0,VALID,89.1979,VALID,0,VALID,23.625,VALID,40,VALID,1.55117,
2010-08-19, 01:42:04,VALID,999.44,VALID,0,VALID,89.6633,VALID,0,VALID,23.5628,VALID,29,VALID,1.5707,
2010-08-19, 01:43:04,VALID,999.429,VALID,0,VALID,89.6938,VALID,0,VALID,23.5841,VALID,10,VALID,1.69219,
2010-08-19, 01:44:04,VALID,999.423,VALID,0,VALID,89.8006,VALID,0,VALID,23.5841,VALID,15,VALID,2.00742,
2010-08-19, 01:45:04,VALID,999.421,VALID,0,VALID,89.5794,VALID,0,VALID,23.6427,VALID,5,VALID,1.17695,
2010-08-19, 01:46:04,VALID,999.4,VALID,0,VALID,89.442,VALID,0,VALID,23.6427,VALID,20,VALID,0.910937,
2010-08-19, 01:47:04,VALID,999.417,VALID,0,VALID,89.2589,VALID,0,VALID,23.6427,VALID,42,VALID,0.550781,
2010-08-19, 01:48:04,VALID,999.429,VALID,0,VALID,89.2589,VALID,0,VALID,23.6232,VALID,55,VALID,0.774609,
2010-08-19, 01:49:04,VALID,999.42,VALID,0,VALID,89.2971,VALID,0,VALID,23.5841,VALID,32,VALID,0.0121094,
2010-08-19, 01:50:04,VALID,999.406,VALID,0,VALID,89.442,VALID,0,VALID,23.5646,VALID,33,VALID,0,
2010-08-19, 01:51:04,VALID,999.429,VALID,0,VALID,89.587,VALID,0,VALID,23.5451,VALID,37,VALID,0.569141,
2010-08-19, 01:52:04,VALID,999.451,VALID,0,VALID,89.6786,VALID,0,VALID,23.5451,VALID,37,VALID,0.939062,
2010-08-19, 01:53:04,VALID,999.436,VALID,0,VALID,89.7777,VALID,0,VALID,23.5451,VALID,44,VALID,0.727734,
2010-08-19, 01:54:04,VALID,999.428,VALID,0,VALID,89.5717,VALID,0,VALID,23.5841,VALID,44,VALID,0.661719,
2010-08-19, 01:55:04,VALID,999.413,VALID,0,VALID,89.5031,VALID,0,VALID,23.5841,VALID,44,VALID,0.531641,
2010-08-19, 01:56:04,VALID,999.406,VALID,0,VALID,89.4726,VALID,0,VALID,23.5841,VALID,22,VALID,0.599609,
2010-08-19, 01:57:04,VALID,999.386,VALID,0,VALID,89.6328,VALID,0,VALID,23.5841,VALID,357,VALID,0.899219,
2010-08-19, 01:58:04,VALID,999.367,VALID,0,VALID,89.526,VALID,0,VALID,23.5841,VALID,4,VALID,0.864844,
2010-08-19, 01:59:04,VALID,999.343,VALID,0,VALID,89.6633,VALID,0,VALID,23.6036,VALID,348,VALID,0.587891,
2010-08-19, 02:00:04,VALID,999.282,VALID,0,VALID,89.5183,VALID,0,VALID,23.6036,VALID,332,VALID,0.40625,
2010-08-19, 02:01:04,VALID,999.295,VALID,0,VALID,89.5641,VALID,0,VALID,23.6019,VALID,354,VALID,0.630859,
2010-08-19, 02:02:04,VALID,999.308,VALID,0,VALID,89.1597,VALID,0,VALID,23.5841,VALID,43,VALID,1.05977,
2010-08-19, 02:03:04,VALID,999.329,VALID,0,VALID,89.4726,VALID,0,VALID,23.5646,VALID,46,VALID,1.75742,
2010-08-19, 02:04:04,VALID,999.307,VALID,0,VALID,89.8464,VALID,0,VALID,23.5646,VALID,44,VALID,1.65937,
2010-08-19, 02:05:04,VALID,999.275,VALID,0,VALID,89.9914,VALID,0,VALID,23.6036,VALID,27,VALID,1.55156,
2010-08-19, 02:06:04,VALID,999.238,VALID,0,VALID,89.6938,VALID,0,VALID,23.6232,VALID,2,VALID,1.41602,
2010-08-19, 02:07:04,VALID,999.241,VALID,0,VALID,89.6404,VALID,0,VALID,23.6232,VALID,360,VALID,1.50742,
2010-08-19, 02:08:04,VALID,999.203,VALID,0,VALID,89.6709,VALID,0,VALID,23.6427,VALID,354,VALID,1.09531,
2010-08-19, 02:09:04,VALID,999.196,VALID,0,VALID,89.648,VALID,0,VALID,23.6409,VALID,2,VALID,1.22031,
2010-08-19, 02:10:04,VALID,999.189,VALID,0,VALID,89.4649,VALID,0,VALID,23.6427,VALID,360,VALID,1.29219,
2010-08-19, 02:11:04,VALID,999.244,VALID,0,VALID,89.442,VALID,0,VALID,23.6817,VALID,331,VALID,1.08984,
2010-08-19, 02:12:04,VALID,999.232,VALID,0,VALID,89.3123,VALID,0,VALID,23.7402,VALID,317,VALID,1.06484,
2010-08-19, 02:13:04,VALID,999.284,VALID,0,VALID,89.0911,VALID,0,VALID,23.7988,VALID,319,VALID,0.600391,
2010-08-19, 02:14:04,VALID,999.289,VALID,0,VALID,88.8011,VALID,0,VALID,23.7988,VALID,319,VALID,0.483203,
2010-08-19, 02:15:04,VALID,999.328,VALID,0,VALID,88.8546,VALID,0,VALID,23.7988,VALID,292,VALID,0.55,
2010-08-19, 02:16:04,VALID,999.302,VALID,0,VALID,88.8927,VALID,0,VALID,23.797,VALID,258,VALID,0.6375,
2010-08-19, 02:17:04,VALID,999.292,VALID,0,VALID,88.7554,VALID,0,VALID,23.8573,VALID,231,VALID,1.2875,
2010-08-19, 02:18:04,VALID,999.309,VALID,0,VALID,88.6257,VALID,0,VALID,23.9159,VALID,210,VALID,1.18125,
2010-08-19, 02:19:04,VALID,999.346,VALID,0,VALID,88.4273,VALID,0,VALID,23.9726,VALID,191,VALID,0.966016,
2010-08-19, 02:20:04,VALID,999.334,VALID,0,VALID,87.9771,VALID,0,VALID,24.0525,VALID,168,VALID,0.853516,
2010-08-19, 02:21:04,VALID,999.327,VALID,0,VALID,87.4278,VALID,0,VALID,24.1305,VALID,172,VALID,1.26719,
2010-08-19, 02:22:04,VALID,999.287,VALID,0,VALID,87.0006,VALID,0,VALID,24.15,VALID,173,VALID,0.850781,
2010-08-19, 02:23:04,VALID,999.272,VALID,0,VALID,86.9929,VALID,0,VALID,24.1891,VALID,173,VALID,0.578125,
2010-08-19, 02:24:04,VALID,999.269,VALID,0,VALID,86.6649,VALID,0,VALID,24.2458,VALID,173,VALID,0.146875,
2010-08-19, 02:25:04,VALID,999.291,VALID,0,VALID,86.5657,VALID,0,VALID,24.2671,VALID,173,VALID,0.184766,
2010-08-19, 02:26:04,VALID,999.255,VALID,0,VALID,86.5275,VALID,0,VALID,24.2671,VALID,173,VALID,0,
2010-08-19, 02:27:04,VALID,999.242,VALID,0,VALID,86.4589,VALID,0,VALID,24.3062,VALID,173,VALID,0,
2010-08-19, 02:28:04,VALID,999.224,VALID,0,VALID,86.3368,VALID,0,VALID,24.3257,VALID,173,VALID,0,
2010-08-19, 02:29:04,VALID,999.214,VALID,0,VALID,86.291,VALID,0,VALID,24.3257,VALID,173,VALID,0.124219,
2010-08-19, 02:30:04,VALID,999.171,VALID,0,VALID,86.0316,VALID,0,VALID,24.3062,VALID,149,VALID,0.613672,
2010-08-19, 02:31:04,VALID,999.158,VALID,0,VALID,85.6959,VALID,0,VALID,24.2476,VALID,130,VALID,0.466406,
2010-08-19, 02:32:04,VALID,999.164,VALID,0,VALID,86.146,VALID,0,VALID,24.1891,VALID,130,VALID,0.452734,
2010-08-19, 02:33:04,VALID,999.174,VALID,0,VALID,86.3139,VALID,0,VALID,24.1092,VALID,130,VALID,0.358984,
2010-08-19, 02:34:04,VALID,999.202,VALID,0,VALID,86.5351,VALID,0,VALID,24.0915,VALID,130,VALID,0.240234,
2010-08-19, 02:35:04,VALID,999.239,VALID,0,VALID,86.7946,VALID,0,VALID,24.0329,VALID,130,VALID,0.00429688,
2010-08-19, 02:36:04,VALID,999.247,VALID,0,VALID,87.115,VALID,0,VALID,24.0134,VALID,130,VALID,0.126563,
2010-08-19, 02:37:04,VALID,999.279,VALID,0,VALID,87.4812,VALID,0,VALID,23.9549,VALID,130,VALID,0.208594,
2010-08-19, 02:38:04,VALID,999.266,VALID,0,VALID,87.6796,VALID,0,VALID,23.9159,VALID,130,VALID,0,
2010-08-19, 02:39:04,VALID,999.237,VALID,0,VALID,87.9237,VALID,0,VALID,23.8768,VALID,130,VALID,0,
2010-08-19, 02:40:04,VALID,999.251,VALID,0,VALID,88.0687,VALID,0,VALID,23.8378,VALID,130,VALID,0,
2010-08-19, 02:41:04,VALID,999.242,VALID,0,VALID,88.2594,VALID,0,VALID,23.8183,VALID,130,VALID,0,
2010-08-19, 02:42:04,VALID,999.214,VALID,0,VALID,88.5189,VALID,0,VALID,23.7579,VALID,130,VALID,0.183594,
2010-08-19, 02:43:04,VALID,999.211,VALID,0,VALID,88.7172,VALID,0,VALID,23.7402,VALID,130,VALID,0.294531,
2010-08-19, 02:44:04,VALID,999.207,VALID,0,VALID,88.969,VALID,0,VALID,23.7207,VALID,130,VALID,0.449219,
2010-08-19, 02:45:04,VALID,999.21,VALID,0,VALID,89.1521,VALID,0,VALID,23.6622,VALID,130,VALID,0.4375,
2010-08-19, 02:46:04,VALID,999.232,VALID,0,VALID,89.3428,VALID,0,VALID,23.6427,VALID,130,VALID,0.466797,
2010-08-19, 02:47:04,VALID,999.232,VALID,0,VALID,89.5489,VALID,0,VALID,23.5841,VALID,130,VALID,0.53125,
2010-08-19, 02:48:04,VALID,999.238,VALID,0,VALID,89.8998,VALID,0,VALID,23.5841,VALID,130,VALID,0.562109,
2010-08-19, 02:49:04,VALID,999.206,VALID,0,VALID,90.1058,VALID,0,VALID,23.5646,VALID,130,VALID,0.585156,
2010-08-19, 02:50:04,VALID,999.264,VALID,0,VALID,90.1745,VALID,0,VALID,23.5256,VALID,130,VALID,0.30625,
2010-08-19, 02:51:04,VALID,999.282,VALID,0,VALID,90.205,VALID,0,VALID,23.5256,VALID,130,VALID,0.126172,
2010-08-19, 02:52:04,VALID,999.272,VALID,0,VALID,89.6709,VALID,0,VALID,23.4671,VALID,130,VALID,0.0769531,
2010-08-19, 02:53:04,VALID,999.259,VALID,0,VALID,89.793,VALID,0,VALID,23.389,VALID,130,VALID,0.117188,
2010-08-19, 02:54:04,VALID,999.273,VALID,0,VALID,90.0219,VALID,0,VALID,23.35,VALID,130,VALID,0.332812,
2010-08-19, 02:55:04,VALID,999.25,VALID,0,VALID,90.617,VALID,0,VALID,23.3305,VALID,130,VALID,0.605859,
2010-08-19, 02:56:04,VALID,999.214,VALID,0,VALID,91.0061,VALID,0,VALID,23.35,VALID,147,VALID,0.928906,
2010-08-19, 02:57:04,VALID,999.214,VALID,0,VALID,90.9909,VALID,0,VALID,23.4085,VALID,147,VALID,0.583203,
2010-08-19, 02:58:04,VALID,999.213,VALID,0,VALID,90.9146,VALID,0,VALID,23.5256,VALID,147,VALID,0.188672,
2010-08-19, 02:59:04,VALID,999.21,VALID,0,VALID,90.3957,VALID,0,VALID,23.5841,VALID,147,VALID,0.0664063,
2010-08-19, 03:00:04,VALID,999.217,VALID,0,VALID,89.9761,VALID,0,VALID,23.5451,VALID,126,VALID,0.616797,
2010-08-19, 03:01:04,VALID,999.253,VALID,0,VALID,90.0066,VALID,0,VALID,23.5646,VALID,106,VALID,0.760938,
2010-08-19, 03:02:04,VALID,999.235,VALID,0,VALID,90.0295,VALID,0,VALID,23.6036,VALID,106,VALID,0.633203,
2010-08-19, 03:03:04,VALID,999.225,VALID,0,VALID,90.1287,VALID,0,VALID,23.6214,VALID,106,VALID,0.342187,
2010-08-19, 03:04:04,VALID,999.231,VALID,0,VALID,89.5489,VALID,0,VALID,23.6622,VALID,106,VALID,0.276953,
2010-08-19, 03:05:04,VALID,999.234,VALID,0,VALID,88.7477,VALID,0,VALID,23.5823,VALID,12,VALID,1.37344,
2010-08-19, 03:06:04,VALID,999.255,VALID,0,VALID,89.4115,VALID,0,VALID,23.5646,VALID,14,VALID,0.982031,
2010-08-19, 03:07:04,VALID,999.244,VALID,0,VALID,89.4954,VALID,0,VALID,23.5256,VALID,14,VALID,1.16328,
2010-08-19, 03:08:04,VALID,999.236,VALID,0,VALID,89.5412,VALID,0,VALID,23.4458,VALID,25,VALID,1.41016,
2010-08-19, 03:09:04,VALID,999.226,VALID,0,VALID,89.7472,VALID,0,VALID,23.3872,VALID,28,VALID,1.1543,
2010-08-19, 03:10:04,VALID,999.24,VALID,0,VALID,89.9914,VALID,0,VALID,23.35,VALID,28,VALID,1.2082,
2010-08-19, 03:11:04,VALID,999.243,VALID,0,VALID,90.3576,VALID,0,VALID,23.3305,VALID,45,VALID,1.37812,
2010-08-19, 03:12:04,VALID,999.189,VALID,0,VALID,90.7391,VALID,0,VALID,23.311,VALID,49,VALID,1.00391,
2010-08-19, 03:13:04,VALID,999.19,VALID,0,VALID,90.9374,VALID,0,VALID,23.3305,VALID,50,VALID,0.690234,
2010-08-19, 03:14:04,VALID,999.136,VALID,0,VALID,90.9832,VALID,0,VALID,23.311,VALID,50,VALID,0.284766,
2010-08-19, 03:15:04,VALID,999.102,VALID,0,VALID,90.9603,VALID,0,VALID,23.311,VALID,50,VALID,0.305859,
2010-08-19, 03:16:04,VALID,999.069,VALID,0,VALID,91.0748,VALID,0,VALID,23.311,VALID,50,VALID,0.444922,
2010-08-19, 03:17:04,VALID,999.072,VALID,0,VALID,91.1282,VALID,0,VALID,23.35,VALID,15,VALID,0.841406,
2010-08-19, 03:18:04,VALID,999.075,VALID,0,VALID,90.9909,VALID,0,VALID,23.4085,VALID,7,VALID,1.08086,
2010-08-19, 03:19:04,VALID,999.049,VALID,0,VALID,90.8001,VALID,0,VALID,23.4475,VALID,7,VALID,1.21758,
2010-08-19, 03:20:04,VALID,999.062,VALID,0,VALID,90.5636,VALID,0,VALID,23.4671,VALID,2,VALID,1.27031,
2010-08-19, 03:21:04,VALID,999.06,VALID,0,VALID,90.4568,VALID,0,VALID,23.4866,VALID,9,VALID,1.07891,
2010-08-19, 03:22:04,VALID,999.134,VALID,0,VALID,90.3805,VALID,0,VALID,23.4475,VALID,10,VALID,0.620313,
2010-08-19, 03:23:04,VALID,999.101,VALID,0,VALID,90.3805,VALID,0,VALID,23.4085,VALID,10,VALID,0.161328,
2010-08-19, 03:24:04,VALID,999.094,VALID,0,VALID,90.6017,VALID,0,VALID,23.389,VALID,10,VALID,0.000390625,
2010-08-19, 03:25:04,VALID,999.113,VALID,0,VALID,90.9374,VALID,0,VALID,23.3677,VALID,10,VALID,0.214453,
2010-08-19, 03:26:04,VALID,999.102,VALID,0,VALID,91.1206,VALID,0,VALID,23.4085,VALID,10,VALID,0,
2010-08-19, 03:27:04,VALID,999.087,VALID,0,VALID,91.1358,VALID,0,VALID,23.4085,VALID,10,VALID,0.0507813,
2010-08-19, 03:28:04,VALID,999.077,VALID,0,VALID,91.2197,VALID,0,VALID,23.4085,VALID,10,VALID,0.279297,
2010-08-19, 03:29:04,VALID,999.028,VALID,0,VALID,91.3647,VALID,0,VALID,23.4085,VALID,15,VALID,0.332031,
2010-08-19, 03:30:04,VALID,998.994,VALID,0,VALID,91.2731,VALID,0,VALID,23.4085,VALID,15,VALID,0.142188,
2010-08-19, 03:31:04,VALID,999.037,VALID,0,VALID,91.1358,VALID,0,VALID,23.3482,VALID,15,VALID,0.56875,
2010-08-19, 03:32:04,VALID,999.025,VALID,0,VALID,91.1816,VALID,0,VALID,23.35,VALID,15,VALID,0.246094,
2010-08-19, 03:33:04,VALID,999.043,VALID,0,VALID,91.235,VALID,0,VALID,23.3287,VALID,15,VALID,0.194141,
2010-08-19, 03:34:04,VALID,999.041,VALID,0,VALID,91.1816,VALID,0,VALID,23.3287,VALID,15,VALID,0.542188,
2010-08-19, 03:35:04,VALID,999.027,VALID,0,VALID,90.9374,VALID,0,VALID,23.3092,VALID,15,VALID,0.729688,
2010-08-19, 03:36:04,VALID,999.078,VALID,0,VALID,91.1968,VALID,0,VALID,23.3092,VALID,24,VALID,0.894141,
2010-08-19, 03:37:04,VALID,999.101,VALID,0,VALID,91.1434,VALID,0,VALID,23.3695,VALID,59,VALID,0.814062,
2010-08-19, 03:38:04,VALID,999.093,VALID,0,VALID,91.0443,VALID,0,VALID,23.389,VALID,81,VALID,0.812891,
2010-08-19, 03:39:04,VALID,999.027,VALID,0,VALID,90.9832,VALID,0,VALID,23.3872,VALID,82,VALID,0.316406,
2010-08-19, 03:40:04,VALID,999.046,VALID,0,VALID,90.9146,VALID,0,VALID,23.428,VALID,82,VALID,0.127734,
2010-08-19, 03:41:04,VALID,999.029,VALID,0,VALID,90.7925,VALID,0,VALID,23.4475,VALID,82,VALID,0.0984375,
2010-08-19, 03:42:04,VALID,999.029,VALID,0,VALID,90.6246,VALID,0,VALID,23.4263,VALID,82,VALID,0.523438,
2010-08-19, 03:43:04,VALID,999.034,VALID,0,VALID,91.0443,VALID,0,VALID,23.4263,VALID,114,VALID,0.801562,
2010-08-19, 03:44:04,VALID,999.031,VALID,0,VALID,91.1968,VALID,0,VALID,23.4653,VALID,114,VALID,0.823828,
2010-08-19, 03:45:04,VALID,999.037,VALID,0,VALID,91.2884,VALID,0,VALID,23.5061,VALID,114,VALID,0.656641,
2010-08-19, 03:46:04,VALID,998.99,VALID,0,VALID,91.3418,VALID,0.112286,VALID,23.5043,VALID,114,VALID,0.417578,